Millville, NJ

5:54 PM EDT on July 20, 2017 (GMT -0400)
Millville Municipal

Weather History for KMIV - September, 2013

Change the Weather History Date:

Monday, September 2, 2013

  Actual Average Record
Temperature  
Mean Temperature 78 °F -  
Max Temperature 82 °F 82 °F 97 °F (1953)
Min Temperature 73 °F 62 °F 47 °F (1991)
Cooling Degree Days 12    
Growing Degree Days 28 (Base 50)    
Moisture  
Dew Point 73 °F    
Average Humidity 90    
Maximum Humidity 100    
Minimum Humidity 65    
Precipitation  
Precipitation 0.04 in - - ()
Sea Level Pressure  
Sea Level Pressure 29.78 in    
Wind  
Wind Speed 2 mph (SW)    
Max Wind Speed 10 mph    
Max Gust Speed -    
Visibility 8 miles    
Events Rain , Thunderstorm    
Averages and records for this station are not official NWS values.
T = Trace of Precipitation, MM = Missing Value Source: NWS Daily Summary

Daily Weather History Graph

Daily Weather History Graph

Search for Another Location

Airport or City:

Trip Planner

Search our weather history database for the weather conditions in past years. The results will help you decide how hot, cold, wet, or windy it might be!

Date:

Astronomy

Sep. 02, 2013 Rise Set
Actual Time 6:29 AM EDT 7:29 PM EDT
Civil Twilight 6:02 AM EDT 7:56 PM EDT
Nautical Twilight 5:29 AM EDT 8:29 PM EDT
Astronomical Twilight 4:55 AM EDT 9:02 PM EDT
Moon 3:45 AM EDT (9/2) 5:40 PM EDT (9/2)
Length of Visible Light 13h 54m
Length of Day
12h 59m
Waning Crescent, 8% of the Moon is Illuminated
Sep 2
Waning Crescent
Sep 5
New
Sep 12
First Quarter
Sep 19
Full
Sep 26
Last Quarter

Hourly Weather History & Observations

Time (EDT) Temp. Heat Index Dew Point Humidity Pressure Visibility Wind Dir Wind Speed Gust Speed Precip Events Conditions
12:14 AM 75.2 °F - 75.2 °F 100% 29.80 in 5.0 mi SSE 3.5 mph - N/A   Mostly Cloudy
12:54 AM 75.9 °F - 75.0 °F 97% 29.79 in 4.0 mi Calm Calm - N/A   Mostly Cloudy
1:09 AM 75.2 °F - 75.2 °F 100% 29.79 in 4.0 mi SSE 3.5 mph - N/A   Scattered Clouds
1:54 AM 75.9 °F - 75.0 °F 97% 29.78 in 4.0 mi Calm Calm - N/A   Partly Cloudy
2:54 AM 75.0 °F - 73.9 °F 96% 29.78 in 4.0 mi Calm Calm - N/A   Scattered Clouds
3:18 AM 73.4 °F - 73.4 °F 100% 29.78 in 1.8 mi Calm Calm - N/A   Clear
3:34 AM 73.4 °F - 73.4 °F 100% 29.77 in 3.0 mi Calm Calm - N/A   Clear
3:54 AM 73.9 °F - 73.0 °F 97% 29.77 in 4.0 mi Calm Calm - N/A   Partly Cloudy
4:54 AM 73.9 °F - 73.0 °F 97% 29.75 in 6.0 mi Calm Calm - N/A   Clear
5:54 AM 73.9 °F - 73.0 °F 97% 29.76 in 5.0 mi Calm Calm - N/A   Mostly Cloudy
6:54 AM 73.9 °F - 73.0 °F 97% 29.78 in 5.0 mi Calm Calm - N/A   Overcast
7:54 AM 75.0 °F - 73.9 °F 96% 29.79 in 6.0 mi SW 3.5 mph - N/A   Overcast
8:04 AM 75.2 °F - 73.4 °F 94% 29.79 in 6.0 mi SW 3.5 mph - N/A Thunderstorm Overcast
8:28 AM 75.2 °F - 73.4 °F 94% 29.79 in 8.0 mi Variable 4.6 mph - N/A   Overcast
8:39 AM 75.2 °F - 73.4 °F 94% 29.79 in 9.0 mi SW 4.6 mph - N/A   Overcast
8:54 AM 75.9 °F - 73.0 °F 91% 29.78 in 10.0 mi WSW 6.9 mph - N/A   Overcast
9:06 AM 75.2 °F - 73.4 °F 94% 29.79 in 10.0 mi West 5.8 mph - N/A Thunderstorm Overcast
9:21 AM 75.2 °F - 73.4 °F 94% 29.79 in 10.0 mi WSW 6.9 mph - N/A   Overcast
9:33 AM 75.2 °F - 73.4 °F 94% 29.80 in 9.0 mi WSW 5.8 mph - N/A   Overcast
9:41 AM 77.0 °F - 73.4 °F 89% 29.79 in 10.0 mi West 6.9 mph - N/A   Overcast
9:54 AM 77.0 °F - 73.0 °F 88% 29.79 in 10.0 mi WSW 4.6 mph - N/A   Overcast
10:54 AM 75.9 °F - 73.0 °F 91% 29.80 in 9.0 mi Calm Calm - N/A   Overcast
11:06 AM 75.2 °F - 73.4 °F 94% 29.80 in 9.0 mi ENE 3.5 mph - N/A   Overcast
11:20 AM 75.2 °F - 73.4 °F 94% 29.80 in 9.0 mi ENE 3.5 mph - N/A   Overcast
11:54 AM 77.0 °F - 73.0 °F 88% 29.79 in 10.0 mi Calm Calm - N/A   Overcast
12:49 PM 80.6 °F 85.4 °F 73.4 °F 79% 29.78 in 10.0 mi Calm Calm - 0.00 in   Mostly Cloudy
12:54 PM 82.0 °F 87.9 °F 73.9 °F 76% 29.78 in 10.0 mi Variable 4.6 mph - 0.00 in   Mostly Cloudy
1:06 PM 80.6 °F 85.4 °F 73.4 °F 79% 29.78 in 10.0 mi Calm Calm - N/A   Overcast
1:54 PM 75.0 °F - 69.1 °F 82% 29.79 in 10.0 mi NNE 10.4 mph - N/A   Overcast
2:07 PM 75.2 °F - 69.8 °F 83% 29.78 in 10.0 mi NNE 6.9 mph - N/A   Overcast
2:54 PM 75.0 °F - 70.0 °F 84% 29.77 in 10.0 mi East 6.9 mph - 0.04 in Rain Light Rain
3:54 PM 80.1 °F 83.6 °F 71.1 °F 74% 29.75 in 10.0 mi South 3.5 mph - 0.00 in   Clear
4:54 PM 82.9 °F 87.0 °F 70.0 °F 65% 29.74 in 10.0 mi Calm Calm - N/A   Clear
5:54 PM 82.9 °F 88.0 °F 72.0 °F 69% 29.73 in 10.0 mi Calm Calm - N/A   Clear
6:54 PM 79.0 °F - 73.0 °F 82% 29.75 in 10.0 mi Calm Calm - N/A   Clear
7:54 PM 75.9 °F - 72.0 °F 87% 29.74 in 10.0 mi Calm Calm - N/A   Clear
8:54 PM 75.0 °F - 73.0 °F 94% 29.74 in 8.0 mi Calm Calm - N/A   Clear
9:54 PM 75.0 °F - 73.0 °F 94% 29.75 in 7.0 mi Variable 3.5 mph - N/A   Clear
10:54 PM 75.9 °F - 73.9 °F 94% 29.73 in 8.0 mi SW 3.5 mph - N/A   Clear
11:54 PM 77.0 °F - 73.0 °F 88% 29.76 in 9.0 mi WSW 3.5 mph - N/A   Clear